User: anonymous   Login
Location: Unspecified
(0.0000°N, 0.0000°E)
Time: 09:37:18
(UTC+00:00)
Language:

AIST 2D - Orbit

View from above orbital plane
View from above orbital plane
View from above satellite
View from above satellite

Ground track
Ground track

The orbit data is extracted from the following two-line orbital elements,

1 41465U 16026B   18015.78677278  .00001204  00000-0  41070-4 0  9995
2 41465  97.2354 278.9247 0011473 172.5844 272.8078 15.32222229 96007
Epoch (UTC): 15 January 2018 18:52:57
Eccentricity: 0.0011473
inclination: 97.2354°
perigee height: 461 km
apogee height: 477 km
right ascension of ascending node: 278.9247°
argument of perigee: 172.5844°
revolutions per day: 15.32222229
mean anomaly at epoch: 272.8078°
orbit number at epoch: 9600

The dashed part of the orbit path shows where the satellite is in the earth's shadow,  

DLR